This demonstration page uses our WeatherBlox Daily Observations layout. Learn more.

Left ArrowRight Arrow

39.01783, -85.05884

Hourly Observations for May 19, 2021

Temp ( °F °C ) Dew Point ( °F °C ) Humidity (%) Winds ( mph kmh ) Pressure ( in mb ) Visibility ( mi km ) Precip ( " mm )
12:52 am 00:52 Mostly Cloudy 66 18.9 56 13.3 70 70 SE 9 15 30.23 1024 10 16 N/A
1:52 am 01:52 Mostly Cloudy 65 18.3 56 13.3 73 73 SE 9 15 30.21 1023 10 16 N/A
2:52 am 02:52 Mostly Cloudy 64 17.8 56 13.3 75 75 SE 7 11 30.21 1023 10 16 N/A
3:52 am 03:52 Partly Cloudy 63 17.2 56 13.3 78 78 SE 3 6 30.21 1023 10 16 N/A
4:52 am 04:52 Mostly Clear 62 16.7 56 13.3 80 80 SSE 5 7 30.23 1024 10 16 N/A
5:52 am 05:52 Mostly Clear 62 16.7 55 12.8 78 78 SE 5 7 30.24 1024 10 16 N/A
6:52 am 06:52 Mostly Cloudy 62 16.7 56 13.3 80 80 SSE 7 11 30.25 1025 10 16 N/A
7:52 am 07:52 Partly Cloudy 65 18.3 58 14.4 78 78 SE 6 9 30.27 1025 10 16 N/A
8:52 am 08:52 Partly Cloudy 70 21.1 58 14.4 66 66 S 8 13 30.29 1026 10 16 N/A
9:52 am 09:52 Mostly Cloudy 75 23.9 58 14.4 55 55 S 8 13 30.29 1026 10 16 N/A
10:52 am 10:52 Partly Cloudy 77 25 58 14.4 52 52 S 9 15 30.29 1026 10 16 N/A
11:52 am 11:52 Mostly Cloudy 79 26.1 58 14.4 49 49 SSW 10 17 30.29 1026 10 16 N/A
12:52 pm 12:52 Mostly Cloudy 79 26.1 58 14.4 49 49 SSW 7 11 30.29 1026 10 16 N/A
1:52 pm 13:52 Cloudy 77 25 57 13.9 50 50 WSW 7 11 30.29 1026 10 16 N/A
2:52 pm 14:52 Mostly Cloudy 78 25.6 57 13.9 48 48 SW 8 13 30.28 1025 10 16 N/A
3:52 pm 15:52 Mostly Cloudy 78 25.6 57 13.9 48 48 SW 7 11 30.27 1025 10 16 N/A
4:52 pm 16:52 Mostly Cloudy 79 26.1 57 13.9 47 47 VRB 5 7 30.25 1024 10 16 N/A
5:52 pm 17:52 Mostly Cloudy 79 26.1 58 14.4 49 49 SSW 7 11 30.24 1024 10 16 N/A
6:52 pm 18:52 Mostly Cloudy 81 27.2 57 13.9 44 44 WSW 3 6 30.24 1024 10 16 N/A
7:52 pm 19:52 Cloudy 79 26.1 57 13.9 47 47 N N/A 30.23 1024 10 16 N/A
8:52 pm 20:52 Mostly Cloudy 76 24.4 58 14.4 54 54 N N/A 30.22 1024 10 16 N/A
9:52 pm 21:52 Mostly Cloudy 72 22.2 59 15 64 64 N N/A 30.23 1024 10 16 N/A
10:52 pm 22:52 Mostly Cloudy 73 22.8 59 15 62 62 NE 3 6 30.24 1024 10 16 N/A
11:52 pm 23:52 Partly Cloudy 70 21.1 59 15 68 68 N N/A 30.24 1024 10 16 N/A

Powered by AerisWeather